Culpeper, VA

2:57 PM EDT on October 18, 2019 (GMT -0400)
Culpeper Regional

Weather History for KCJR - September, 2019

Change the Weather History Date:

Friday, September 20, 2019

  Actual Average (KOMH) Record (KOMH)
Temperature  
Mean Temperature 61 °F -  
Max Temperature 82 °F 77 °F 91 °F (1978)
Min Temperature 41 °F 57 °F 38 °F (1959)
Degree Days  
Heating Degree Days 4    
Growing Degree Days 11 (Base 50)    
Moisture  
Dew Point 48 °F    
Average Humidity 70    
Maximum Humidity 95    
Minimum Humidity 29    
Precipitation  
Precipitation 0.00 in - - ()
Sea Level Pressure  
Sea Level Pressure 30.28 in    
Wind  
Wind Speed 1 mph ()    
Max Wind Speed 7 mph    
Max Gust Speed -    
Visibility 9.6 miles    
Events      
Averages and records for this station are not official NWS values.
T = Trace of Precipitation, MM = Missing Value Source: Averaged Metar Reports

Daily Weather History Graph

Daily Weather History Graph

Search for Another Location

Airport or City:

Astronomy

Sep. 20, 2019 Rise Set
Actual Time 6:57 AM EDT 7:12 PM EDT
Civil Twilight 6:30 AM EDT 7:38 PM EDT
Nautical Twilight 5:59 AM EDT 8:09 PM EDT
Astronomical Twilight 5:27 AM EDT 8:40 PM EDT
Moon 11:04 PM EDT (9/20) 12:55 PM EDT (9/20)
Length of Visible Light 13h 07m
Length of Day
12h 14m
Waning Gibbous, 65% of the Moon is Illuminated
Sep 20
Waning Gibbous
Sep 21
Last Quarter
Sep 28
New
Oct 5
First Quarter
Oct 13
Full

Hourly Weather History & Observations

Time (EDT) Temp. Dew Point Humidity Pressure Visibility Wind Dir Wind Speed Gust Speed Precip Events Conditions
12:15 AM 48.7 °F 46.9 °F 93% 30.31 in 10.0 mi NNE 3.5 mph - N/A   Clear
12:35 AM 47.5 °F 46.0 °F 95% 30.31 in 10.0 mi Calm Calm - N/A   Clear
12:55 AM 47.8 °F 46.4 °F 95% 30.31 in 10.0 mi Calm Calm - N/A   Clear
1:15 AM 46.4 °F 45.1 °F 95% 30.31 in 10.0 mi Calm Calm - N/A   Clear
1:35 AM 46.6 °F 45.3 °F 95% 30.31 in 7.0 mi Calm Calm - N/A   Clear
1:55 AM 45.5 °F 44.1 °F 95% 30.31 in 7.0 mi Calm Calm - N/A   Clear
2:15 AM 45.5 °F 44.1 °F 95% 30.31 in 7.0 mi Calm Calm - N/A   Clear
2:35 AM 46.0 °F 44.6 °F 95% 30.31 in 10.0 mi Calm Calm - N/A   Clear
2:55 AM 46.0 °F 44.6 °F 95% 30.31 in 10.0 mi Calm Calm - N/A   Clear
3:15 AM 45.0 °F 43.7 °F 95% 30.31 in 10.0 mi Calm Calm - N/A   Clear
3:35 AM 44.6 °F 43.2 °F 95% 30.31 in 10.0 mi Calm Calm - N/A   Clear
3:55 AM 45.0 °F 43.5 °F 95% 30.31 in 10.0 mi Calm Calm - N/A   Clear
4:15 AM 44.1 °F 42.8 °F 95% 30.31 in 10.0 mi Calm Calm - N/A   Clear
4:35 AM 43.7 °F 42.3 °F 95% 30.31 in 7.0 mi Calm Calm - N/A   Clear
4:55 AM 43.3 °F 42.1 °F 95% 30.31 in 10.0 mi Calm Calm - N/A   Clear
5:15 AM 43.0 °F 41.5 °F 95% 30.31 in 10.0 mi Calm Calm - N/A   Clear
5:35 AM 43.9 °F 42.6 °F 95% 30.31 in 10.0 mi Calm Calm - N/A   Clear
5:55 AM 42.4 °F 41.0 °F 95% 30.31 in 7.0 mi Calm Calm - N/A   Clear
6:15 AM 43.3 °F 41.9 °F 95% 30.32 in 10.0 mi Calm Calm - N/A   Clear
6:35 AM 42.1 °F 40.8 °F 95% 30.32 in 7.0 mi Calm Calm - N/A   Clear
6:55 AM 41.9 °F 40.6 °F 95% 30.32 in 7.0 mi Calm Calm - N/A   Clear
7:15 AM 41.9 °F 40.6 °F 95% 30.32 in 2.0 mi Calm Calm - N/A   Clear
7:35 AM 42.8 °F 41.4 °F 95% 30.33 in 10.0 mi Calm Calm - N/A   Clear
7:55 AM 45.3 °F 44.1 °F 95% 30.33 in 10.0 mi Calm Calm - N/A   Clear
8:15 AM 48.7 °F 47.3 °F 95% 30.33 in 10.0 mi Calm Calm - N/A   Clear
8:35 AM 52.3 °F 48.4 °F 86% 30.34 in 10.0 mi Calm Calm - N/A   Clear
8:55 AM 55.4 °F 49.3 °F 80% 30.34 in 10.0 mi Calm Calm - N/A   Clear
9:15 AM 58.5 °F 50.5 °F 75% 30.33 in 10.0 mi Calm Calm - N/A   Clear
9:35 AM 61.7 °F 51.1 °F 68% 30.34 in 10.0 mi SSW 3.5 mph - N/A   Clear
9:55 AM 63.9 °F 50.4 °F 61% 30.33 in 10.0 mi SSW 6.9 mph - N/A   Clear
10:15 AM 66.2 °F 50.2 °F 56% 30.33 in 10.0 mi SW 4.6 mph - N/A   Clear
10:35 AM 67.8 °F 50.2 °F 53% 30.32 in 10.0 mi SW 3.5 mph - N/A   Clear
10:55 AM 70.5 °F 50.7 °F 49% 30.32 in 10.0 mi South 3.5 mph - N/A   Clear
11:15 AM 71.1 °F 50.0 °F 47% 30.31 in 10.0 mi South 6.9 mph - N/A   Clear
11:35 AM 72.0 °F 49.8 °F 46% 30.31 in 10.0 mi SW 6.9 mph - N/A   Clear
11:55 AM 73.9 °F 49.6 °F 42% 30.30 in 10.0 mi SSW 5.8 mph - N/A   Clear
12:15 PM 74.1 °F 48.7 °F 41% 30.29 in 10.0 mi WSW 3.5 mph - N/A   Clear
12:35 PM 75.2 °F 49.6 °F 41% 30.29 in 10.0 mi South 3.5 mph - N/A   Clear
12:55 PM 76.1 °F 48.7 °F 38% 30.28 in 10.0 mi Calm Calm - N/A   Clear
1:15 PM 76.3 °F 48.0 °F 37% 30.27 in 10.0 mi Calm Calm - N/A   Clear
1:35 PM 77.7 °F 48.6 °F 36% 30.26 in 10.0 mi WSW 4.6 mph - N/A   Clear
1:55 PM 78.6 °F 47.5 °F 33% 30.25 in 10.0 mi South 3.5 mph - N/A   Clear
2:15 PM 79.3 °F 48.0 °F 33% 30.24 in 10.0 mi SSE 3.5 mph - N/A   Clear
2:35 PM 78.4 °F 47.7 °F 34% 30.23 in 10.0 mi West 5.8 mph - N/A   Clear
2:55 PM 80.4 °F 48.0 °F 32% 30.23 in 10.0 mi Calm Calm - N/A   Clear
3:15 PM 80.4 °F 47.1 °F 31% 30.22 in 10.0 mi Calm Calm - N/A   Clear
3:35 PM 81.1 °F 48.0 °F 31% 30.22 in 10.0 mi WSW 4.6 mph - N/A   Clear
3:55 PM 80.4 °F 47.1 °F 31% 30.21 in 10.0 mi Calm Calm - N/A   Clear
4:55 PM 81.3 °F 46.6 °F 29% 30.21 in 10.0 mi Calm Calm - N/A   Clear
5:15 PM 81.9 °F 47.1 °F 30% 30.21 in 10.0 mi WNW 3.5 mph - N/A   Clear
5:35 PM 81.5 °F 47.3 °F 30% 30.21 in 10.0 mi Calm Calm - N/A   Clear
5:55 PM 81.1 °F 48.6 °F 32% 30.21 in 10.0 mi Calm Calm - N/A   Clear
6:15 PM 79.7 °F 49.8 °F 35% 30.21 in 10.0 mi South 3.5 mph - N/A   Clear
6:35 PM 78.3 °F 50.2 °F 37% 30.22 in 10.0 mi SSW 3.5 mph - N/A   Clear
6:55 PM 75.6 °F 51.8 °F 43% 30.22 in 10.0 mi Calm Calm - N/A   Clear
7:15 PM 70.0 °F 52.9 °F 55% 30.22 in 10.0 mi Calm Calm - N/A   Clear
7:35 PM 66.0 °F 53.6 °F 64% 30.22 in 10.0 mi Calm Calm - N/A   Clear
7:55 PM 64.0 °F 53.1 °F 67% 30.23 in 10.0 mi Calm Calm - N/A   Clear
8:15 PM 62.4 °F 53.2 °F 72% 30.23 in 10.0 mi Calm Calm - N/A   Clear
8:35 PM 61.9 °F 53.6 °F 74% 30.23 in 10.0 mi Calm Calm - N/A   Clear
8:55 PM 60.6 °F 53.6 °F 78% 30.24 in 10.0 mi Calm Calm - N/A   Clear
9:15 PM 60.1 °F 54.0 °F 80% 30.24 in 10.0 mi Calm Calm - N/A   Clear
9:35 PM 58.8 °F 53.6 °F 83% 30.24 in 10.0 mi Calm Calm - N/A   Clear
9:55 PM 58.6 °F 54.1 °F 85% 30.24 in 10.0 mi Calm Calm - N/A   Clear
10:15 PM 57.2 °F 54.1 °F 89% 30.25 in 10.0 mi Calm Calm - N/A   Clear
10:35 PM 57.0 °F 54.5 °F 91% 30.25 in 10.0 mi Calm Calm - N/A   Clear
10:55 PM 56.3 °F 54.3 °F 93% 30.25 in 10.0 mi Calm Calm - N/A   Clear
11:15 PM 55.8 °F 53.6 °F 92% 30.25 in 10.0 mi Calm Calm - N/A   Clear
11:35 PM 55.6 °F 54.0 °F 94% 30.25 in 10.0 mi Calm Calm - N/A   Clear
11:55 PM 55.8 °F 54.3 °F 95% 30.25 in 10.0 mi Calm Calm - N/A   Clear